User: anonymous   Login
Location: Ottawa
(45.4170°N, 75.7000°W)
Time: 22:57:12
(UTC-05:00)
Language:

Aureole 3 Rocket - Orbit

View from above orbital plane
View from above orbital plane
View from above satellite
View from above satellite

Ground track
Ground track

The orbit data is extracted from the following two-line orbital elements,

1 12849U 81094B   15064.61705348  .00001518  00000-0  13864-3 0  9996
2 12849 082.4895 086.7069 0909484 137.3438 230.2113 13.48846776629352
Epoch (UTC): 05 March 2015 14:48:33
Eccentricity: 0.0909484
inclination: 82.4895°
perigee height: 398 km
apogee height: 1754 km
right ascension of ascending node: 86.7069°
argument of perigee: 137.3438°
revolutions per day: 13.48846776
mean anomaly at epoch: 230.2113°
orbit number at epoch: 62935

The dashed part of the orbit path shows where the satellite is in the earth's shadow,  

DLR